Wind_Speed
24 23 24 24 24 25 25 24 24 24 23 23 23 23 23 23 23 22 21 19 19 17 18 18 17 17 17 17 17 18 18 18 19 20 20 20 20 20 21 21 22 22 22
25 25 24 23 24 24 24 23 23 23 23 23 22 22 22 23 23 23 21 20 20 20 20 19 18 18 18 17 17 18 18 19 19 20 20 21 21 21 22 22 23 24 24
25 25 25 24 23 23 23 23 24 24 23 23 22 22 22 22 23 23 22 22 21 21 20 19 18 18 19 18 18 18 19 19 20 19 19 21 22 23 23 23 24 25 26
26 25 25 24 24 23 23 23 23 24 23 23 23 23 23 22 23 23 23 22 22 22 21 21 20 20 20 20 20 20 19 19 20 20 20 21 21 22 23 24 24 25 27
27 26 25 25 24 25 24 23 23 23 24 24 24 25 24 24 23 23 23 23 23 23 22 22 22 21 21 20 20 21 21 21 21 21 21 21 22 22 23 24 24 24 26
27 28 27 26 25 25 25 25 24 24 25 24 24 25 25 24 24 24 24 24 23 23 22 22 22 21 21 21 21 22 22 22 22 23 22 22 22 22 23 24 25 25 26
28 27 27 26 25 24 24 25 25 24 25 25 25 25 25 25 25 25 24 24 23 23 22 22 22 22 21 21 22 22 22 23 23 24 24 23 23 23 24 25 26 26 26
27 27 27 27 26 25 25 26 26 25 25 25 25 25 25 25 25 25 25 24 24 23 22 22 22 22 22 21 21 22 22 22 23 24 24 23 23 23 24 25 26 27 27
27 27 27 27 27 26 26 26 26 26 26 25 25 25 25 26 25 26 26 26 25 24 23 23 23 23 22 22 22 22 22 22 23 23 23 24 23 23 23 23 24 25 26
25 26 28 28 28 27 27 27 27 27 26 25 25 26 26 26 26 26 26 26 25 25 24 24 24 23 23 23 23 23 23 23 23 23 23 23 23 23 23 24 24 24 24
26 26 26 27 27 27 27 26 27 27 27 27 26 26 26 26 26 26 26 25 25 25 25 25 24 24 24 24 23 24 23 24 23 22 22 22 23 23 23 23 23 23 23
25 25 25 25 25 25 25 25 26 27 27 27 27 26 26 26 25 26 25 25 25 25 24 24 24 25 25 25 24 24 24 23 23 22 22 23 23 24 24 25 24 23 23
24 23 23 23 22 22 23 24 24 25 26 26 26 26 25 25 25 25 25 24 24 24 24 24 24 24 25 25 24 24 24 23 23 23 23 22 23 23 24 23 23 23 24
23 23 23 22 22 22 23 23 23 23 24 25 25 25 24 25 25 24 24 24 24 24 24 24 24 24 23 23 23 23 24 24 24 24 23 23 23 24 23 23 23 23 23
23 23 22 22 22 22 22 22 22 22 23 24 24 24 24 24 23 23 23 24 24 23 24 24 23 23 23 22 22 23 23 23 23 23 23 24 24 23 24 23 22 23 23
23 23 23 23 22 22 22 22 22 22 22 22 22 23 23 22 23 23 23 24 24 24 23 23 23 24 23 23 23 23 23 22 22 22 23 23 23 23 23 23 22 22 22
22 22 22 22 22 22 21 21 21 21 20 20 21 21 21 22 22 23 23 23 24 24 23 23 23 23 23 23 23 22 22 21 21 21 21 21 21 22 23 22 22 22 22
22 21 20 20 20 20 20 20 20 20 19 19 19 19 19 20 21 21 21 21 21 21 21 21 22 22 21 21 21 21 20 20 20 21 21 21 21 21 22 22 21 21 21
20 19 19 18 18 18 18 18 18 19 18 19 19 18 18 19 19 20 20 20 20 19 19 19 19 19 19 19 19 20 20 19 19 20 20 20 20 20 21 20 20 21 20
16 16 16 16 15 16 16 16 16 17 17 17 17 16 16 16 17 17 18 18 18 17 17 17 17 16 16 17 17 17 18 18 18 18 19 19 19 18 18 18 19 18 18
14 14 14 14 14 14 15 14 14 15 15 15 15 14 14 14 15 15 15 15 14 14 15 15 16 15 15 15 15 15 16 16 16 17 17 17 17 17 17 16 16 16 16
13 12 13 12 12 12 12 12 13 13 12 13 14 13 12 13 13 13 13 13 13 13 13 14 14 14 15 14 14 13 14 14 14 14 14 14 14 13 13 12 13 13 13
10 10 10 9 9 9 10 10 10 10 10 11 11 11 11 11 12 12 11 11 12 12 13 13 13 13 13 12 12 12 12 12 13 12 12 11 11 10 10 11 11 11 11
8 7 7 7 7 7 8 8 8 8 9 9 9 10 10 11 11 10 10 11 11 11 11 11 11 10 10 11 10 10 10 10 10 9 9 8 9 9 9 9 10 11 11
6 5 5 5 5 5 6 6 6 6 7 7 8 8 8 8 9 9 9 9 9 9 9 8 8 8 8 8 9 8 8 8 8 8 7 7 7 7 8 9 10 10 11
6 6 5 5 4 3 3 4 5 4 5 6 6 7 7 7 7 7 6 6 6 6 7 7 7 8 8 8 8 7 7 7 8 8 7 7 7 8 8 9 10 10 11
Wind_Direction
277 276 273 271 268 265 265 263 260 261 261 264 265 264 265 267 266 266 266 267 269 270 270 268 268 268 268 267 267 265 262 259 258 258 257 256 256 257 255 254 254 253 253
279 277 273 270 268 265 263 262 259 260 263 265 263 262 264 266 264 264 266 267 266 268 268 267 267 267 266 268 267 266 263 260 259 259 258 256 256 258 258 257 257 254 253
281 278 274 271 270 266 263 260 258 258 262 263 263 263 264 265 264 265 268 267 267 268 268 268 267 267 265 265 265 265 263 260 258 259 259 258 258 258 258 258 259 257 255
282 281 278 272 271 268 264 261 260 259 260 261 261 262 262 265 265 265 267 269 268 268 268 269 268 267 264 263 262 262 261 260 260 260 260 260 259 259 259 259 260 259 257
280 279 278 275 272 267 264 262 261 260 260 260 262 262 264 265 266 267 267 267 267 267 266 266 267 266 263 262 261 260 260 261 260 261 262 261 260 259 260 260 260 261 258
278 277 275 273 270 266 263 261 261 260 260 260 260 261 262 263 264 267 266 266 266 266 266 266 265 264 263 262 261 261 261 261 261 260 261 262 261 261 261 262 260 261 262
279 276 274 272 270 268 265 261 260 260 260 260 260 260 261 261 262 263 263 264 266 266 266 265 263 262 262 261 261 262 262 263 261 261 261 262 263 263 262 263 261 260 263
276 275 274 269 269 270 269 264 261 261 261 260 261 261 261 262 262 262 261 262 264 265 264 264 263 261 260 261 261 262 262 262 260 260 261 263 265 265 265 264 263 262 262
273 274 274 272 269 271 270 266 261 260 261 261 260 261 260 261 262 262 262 262 263 263 263 262 263 263 262 261 261 261 261 261 261 261 262 264 266 266 265 264 263 263 263
276 274 274 272 270 269 268 265 262 261 261 262 262 261 260 260 260 261 262 262 261 261 262 262 263 263 263 262 261 261 260 260 261 262 263 263 263 265 264 265 265 262 263
278 276 275 272 270 268 266 265 263 261 260 261 262 263 262 262 260 260 261 260 260 261 262 262 262 262 262 262 260 261 262 260 262 263 261 261 262 264 264 265 265 264 263
281 279 277 274 271 269 267 267 265 263 262 262 263 264 264 263 261 260 260 259 260 261 261 262 262 262 262 262 261 261 262 260 260 260 261 262 263 264 265 264 264 265 267
280 278 276 274 273 271 269 269 268 266 264 263 263 263 263 262 262 261 260 260 259 259 259 261 262 263 263 263 262 261 260 262 261 260 260 261 264 265 266 264 263 263 264
279 277 275 274 274 272 270 269 269 267 265 263 262 262 262 261 261 261 261 260 259 257 258 259 261 262 262 261 261 261 260 261 261 259 259 260 262 264 265 265 263 263 264
278 277 275 274 274 274 271 270 270 268 266 265 263 262 260 259 258 257 259 260 258 256 256 258 260 260 259 260 261 261 261 260 260 259 259 260 262 263 263 263 265 265 265
280 278 275 273 273 273 271 269 268 267 267 266 265 263 261 258 257 257 258 258 258 258 257 257 258 258 258 260 261 260 260 260 259 259 258 259 260 262 263 264 264 265 265
284 279 277 275 274 272 271 269 268 266 266 266 264 262 260 258 257 257 258 257 256 257 257 257 258 258 259 261 262 261 261 258 258 258 258 257 259 261 260 263 265 265 265
286 282 279 276 275 273 271 269 265 263 263 263 262 262 261 259 258 258 258 257 256 256 257 258 258 257 259 260 261 260 258 257 257 258 259 259 259 260 260 263 265 264 265
287 283 281 279 277 274 272 268 265 262 263 263 262 262 260 257 256 256 257 257 255 255 255 256 256 256 258 258 258 257 256 257 257 258 259 259 260 261 261 263 265 265 264
287 286 284 281 277 272 270 270 266 262 263 263 261 262 260 257 256 256 256 256 254 254 253 254 254 256 257 256 256 255 254 256 257 258 257 258 260 260 262 263 263 264 264
287 287 285 284 279 274 268 267 266 263 263 261 258 259 259 258 256 254 255 253 253 252 251 253 253 254 255 257 256 254 254 254 255 257 257 256 258 260 260 262 264 265 264
293 290 287 285 280 271 265 265 266 264 263 260 258 257 256 254 251 252 251 249 248 248 250 252 252 253 255 255 253 253 252 253 254 256 257 254 257 258 259 260 262 262 263
300 295 291 284 278 270 265 265 262 262 264 263 260 256 258 259 256 250 246 245 247 247 248 251 252 252 252 250 251 251 253 251 250 252 254 254 254 257 260 263 262 264 267
311 302 294 290 285 280 271 271 267 266 263 263 266 265 260 258 254 249 248 249 249 248 248 248 249 247 245 241 244 247 248 243 245 247 250 253 259 261 264 261 261 265 270
325 319 315 308 301 285 271 266 272 273 267 266 265 264 260 255 251 247 246 244 243 242 241 239 239 240 238 237 238 237 235 233 239 242 250 258 261 261 260 262 266 270 274
343 341 337 330 323 307 281 268 277 275 271 270 265 260 255 249 245 239 237 235 234 232 228 229 228 230 230 228 227 225 231 239 243 244 249 254 258 264 270 271 273 276 280
Height
5872 5871 5870 5870 5869 5869 5869 5869 5869 5869 5869 5869 5869 5868 5868 5868 5868 5869 5869 5869 5868 5867 5867 5867 5867 5867 5867 5866 5866 5866 5866 5867 5867 5868 5868 5869 5870 5870 5871 5872 5872 5873 5874
5867 5866 5865 5864 5864 5864 5864 5864 5863 5864 5864 5863 5863 5863 5863 5863 5863 5864 5864 5864 5863 5864 5863 5863 5863 5863 5862 5862 5862 5862 5862 5862 5863 5863 5864 5864 5865 5866 5867 5867 5868 5869 5870
5861 5860 5859 5858 5858 5858 5858 5858 5858 5858 5858 5858 5858 5858 5858 5858 5858 5858 5858 5858 5858 5858 5857 5857 5858 5858 5858 5858 5858 5858 5858 5858 5858 5859 5859 5860 5860 5861 5862 5862 5863 5864 5864
5855 5854 5853 5853 5853 5852 5852 5852 5852 5852 5852 5853 5853 5853 5853 5852 5852 5853 5853 5853 5853 5853 5852 5852 5852 5853 5853 5853 5853 5853 5853 5853 5854 5854 5855 5855 5855 5856 5857 5857 5857 5858 5859
5849 5848 5847 5847 5847 5846 5846 5846 5846 5846 5846 5846 5846 5846 5847 5847 5846 5847 5847 5847 5847 5847 5847 5847 5847 5847 5847 5847 5848 5848 5848 5848 5849 5849 5850 5850 5850 5851 5851 5852 5852 5852 5853
5842 5842 5841 5840 5840 5840 5839 5840 5840 5840 5840 5840 5840 5840 5841 5840 5840 5840 5841 5841 5841 5841 5841 5841 5841 5842 5842 5842 5842 5842 5843 5843 5843 5844 5844 5845 5845 5845 5846 5846 5847 5847 5847
5835 5835 5834 5833 5833 5833 5833 5833 5833 5833 5833 5834 5834 5834 5834 5834 5834 5834 5834 5835 5835 5835 5835 5835 5836 5836 5836 5836 5836 5837 5837 5837 5838 5838 5838 5839 5839 5839 5840 5840 5841 5841 5842
5828 5827 5826 5826 5827 5826 5826 5826 5826 5826 5827 5827 5827 5827 5828 5828 5828 5827 5828 5828 5828 5829 5829 5829 5830 5830 5830 5830 5830 5831 5831 5832 5832 5832 5832 5833 5833 5833 5834 5834 5835 5835 5835
5821 5820 5819 5819 5819 5819 5819 5819 5819 5819 5820 5820 5820 5821 5821 5821 5821 5821 5821 5821 5822 5822 5823 5823 5823 5824 5824 5824 5824 5825 5825 5826 5826 5826 5826 5827 5827 5827 5827 5828 5828 5828 5828
5814 5813 5812 5812 5812 5812 5812 5811 5812 5812 5812 5812 5813 5813 5814 5814 5814 5814 5814 5815 5815 5816 5816 5817 5817 5817 5818 5818 5818 5819 5819 5820 5820 5820 5820 5820 5821 5821 5821 5822 5821 5821 5821
5807 5805 5805 5804 5804 5804 5804 5804 5804 5804 5805 5805 5805 5805 5806 5806 5807 5807 5808 5808 5808 5809 5809 5810 5810 5811 5811 5811 5812 5812 5813 5813 5814 5814 5814 5814 5815 5815 5815 5815 5815 5814 5815
5800 5798 5797 5797 5796 5796 5796 5796 5796 5796 5797 5797 5797 5798 5798 5798 5799 5800 5801 5801 5801 5802 5803 5803 5803 5804 5804 5805 5805 5806 5806 5807 5807 5807 5808 5808 5808 5809 5809 5809 5808 5808 5808
5793 5791 5791 5790 5789 5789 5789 5789 5789 5789 5789 5789 5790 5790 5790 5791 5791 5792 5793 5794 5794 5795 5796 5796 5797 5797 5798 5798 5798 5799 5800 5800 5800 5801 5801 5802 5802 5802 5802 5802 5802 5801 5801
5786 5785 5784 5783 5782 5782 5782 5781 5781 5781 5781 5782 5782 5783 5783 5784 5784 5785 5786 5787 5788 5788 5789 5790 5790 5790 5791 5791 5792 5792 5793 5793 5794 5794 5794 5795 5795 5795 5795 5795 5795 5795 5795
5779 5778 5777 5776 5775 5775 5775 5774 5774 5774 5774 5775 5775 5775 5776 5776 5777 5778 5779 5780 5781 5782 5783 5783 5784 5784 5784 5785 5785 5786 5786 5787 5787 5787 5788 5788 5788 5788 5788 5788 5788 5788 5788
5772 5771 5770 5769 5768 5768 5768 5768 5768 5767 5767 5768 5768 5769 5769 5770 5770 5771 5772 5773 5774 5775 5776 5777 5777 5777 5778 5778 5778 5779 5779 5780 5780 5781 5781 5781 5782 5782 5782 5782 5781 5781 5781
5765 5764 5763 5762 5761 5761 5761 5761 5761 5761 5761 5761 5761 5762 5762 5763 5764 5765 5766 5766 5767 5768 5769 5770 5770 5771 5771 5772 5772 5772 5773 5773 5774 5774 5774 5775 5775 5775 5775 5775 5775 5775 5775
5759 5757 5756 5755 5755 5754 5754 5754 5754 5754 5755 5755 5755 5756 5756 5757 5758 5758 5759 5760 5761 5761 5763 5764 5764 5764 5765 5765 5766 5766 5767 5767 5768 5768 5768 5769 5769 5769 5769 5769 5769 5769 5769
5752 5751 5750 5749 5749 5748 5748 5748 5748 5748 5749 5749 5749 5750 5750 5750 5751 5752 5753 5754 5754 5755 5756 5757 5758 5758 5758 5759 5760 5760 5761 5761 5762 5762 5763 5763 5763 5763 5763 5763 5763 5763 5763
5747 5746 5745 5744 5743 5743 5743 5743 5742 5743 5743 5743 5744 5744 5745 5745 5746 5747 5747 5748 5749 5749 5750 5751 5752 5752 5753 5754 5754 5755 5755 5756 5756 5757 5757 5757 5757 5758 5758 5758 5758 5757 5757
5743 5742 5740 5739 5738 5738 5738 5738 5738 5738 5738 5738 5739 5740 5740 5740 5741 5742 5742 5743 5744 5745 5746 5746 5747 5748 5748 5749 5749 5750 5750 5751 5751 5752 5752 5752 5753 5753 5753 5753 5753 5752 5752
5740 5738 5737 5735 5734 5734 5734 5734 5734 5734 5734 5734 5735 5735 5736 5736 5737 5737 5738 5739 5740 5741 5741 5742 5743 5744 5744 5745 5745 5745 5746 5747 5747 5748 5748 5748 5748 5748 5748 5748 5748 5748 5748
5737 5735 5734 5733 5732 5731 5731 5731 5731 5731 5731 5731 5731 5732 5732 5733 5733 5734 5734 5735 5736 5737 5738 5738 5739 5739 5740 5740 5741 5742 5742 5743 5743 5744 5744 5744 5744 5744 5744 5744 5744 5744 5744
5734 5733 5732 5731 5730 5729 5728 5728 5728 5728 5728 5728 5728 5728 5729 5729 5730 5731 5731 5732 5733 5733 5734 5734 5735 5736 5736 5737 5738 5739 5739 5740 5740 5741 5741 5741 5741 5741 5741 5741 5741 5741 5741
5733 5732 5731 5729 5728 5727 5727 5726 5726 5726 5726 5726 5726 5726 5726 5727 5727 5728 5729 5729 5729 5730 5731 5731 5732 5733 5733 5734 5735 5736 5736 5737 5738 5738 5738 5739 5739 5739 5739 5739 5738 5738 5737
5733 5731 5730 5728 5727 5726 5725 5725 5724 5724 5724 5724 5724 5724 5724 5725 5725 5726 5726 5727 5727 5728 5728 5729 5730 5731 5731 5732 5733 5734 5735 5735 5736 5736 5736 5736 5736 5736 5736 5736 5735 5734 5733